Weather History for Orange City, IA

Change the Weather History Date:

Tuesday, February 12, 2013

  Actual Average Record
Temperature  
Mean Temperature 27 °F -  
Max Temperature 37 °F 32 °F 53 °F (1998)
Min Temperature 17 °F 16 °F -5 °F (1997)
Degree Days  
Heating Degree Days 38    
Moisture  
Dew Point 21 °F    
Average Humidity 78    
Maximum Humidity 86    
Minimum Humidity 60    
Precipitation  
Precipitation 0.00 in - - ()
Sea Level Pressure  
Sea Level Pressure 29.94 in    
Wind  
Wind Speed 5 mph (West)    
Max Wind Speed 16 mph    
Max Gust Speed 18 mph    
Visibility 10 miles    
Events      
Averages and records for this station are not official NWS values.
T = Trace of Precipitation, MM = Missing Value Source: NWS Daily Summary

Daily Weather History Graph

Daily Weather History Graph

Search for Another Location

Airport:

Trip Planner

Search our weather history database for the weather conditions in past years. The results will help you decide how hot, cold, wet, or windy it might be!

Date:

Astronomy

Feb. 12, 2013 Rise Set
Actual Time 7:25 AM CST 5:52 PM CST
Civil Twilight 6:56 AM CST 6:21 PM CST
Nautical Twilight 6:22 AM CST 6:54 PM CST
Astronomical Twilight 5:49 AM CST 7:27 PM CST
Moon 8:17 AM CST (2/12) 9:00 PM CST (2/12)
Length of Visible Light 11h 25m
Length of Day
10h 26m
Waxing Crescent, 7% of the Moon is Illuminated
Feb 12
Waxing Crescent
Feb 17
First Quarter
Feb 25
Full
Mar 4
Last Quarter
Mar 11
New

Hourly Weather History & Observations

Time (CST) Temp. Windchill Dew Point Humidity Pressure Visibility Wind Dir Wind Speed Gust Speed Precip Events Conditions
12:15 AM 24.8 °F 16.1 °F 19.4 °F 80% 30.08 in 10.0 mi West 8.1 mph - N/A   Mostly Cloudy
12:35 AM 23.0 °F - 17.6 °F 80% 30.08 in 10.0 mi Calm Calm - N/A   Clear
12:55 AM 21.2 °F - 17.6 °F 86% 30.08 in 10.0 mi Calm Calm - N/A   Clear
1:15 AM 21.2 °F - 15.8 °F 80% 30.07 in 10.0 mi Calm Calm - N/A   Clear
1:35 AM 21.2 °F - 17.6 °F 86% 30.07 in 10.0 mi Calm Calm - N/A   Clear
1:55 AM 21.2 °F - 17.6 °F 86% 30.07 in 10.0 mi Calm Calm - N/A   Clear
2:15 AM 19.4 °F - 15.8 °F 86% 30.06 in 10.0 mi Calm Calm - N/A   Clear
2:35 AM 19.4 °F - 15.8 °F 86% 30.05 in 10.0 mi Calm Calm - N/A   Clear
2:55 AM 19.4 °F - 15.8 °F 86% 30.05 in 10.0 mi Calm Calm - N/A   Clear
3:15 AM 19.4 °F - 15.8 °F 86% 30.04 in 10.0 mi Calm Calm - N/A   Clear
3:35 AM 19.4 °F - 15.8 °F 86% 30.02 in 10.0 mi Calm Calm - N/A   Clear
3:55 AM 19.4 °F - 15.8 °F 86% 30.01 in 10.0 mi Calm Calm - N/A   Clear
4:15 AM 19.4 °F - 15.8 °F 86% 30.00 in 10.0 mi Calm Calm - N/A   Clear
4:35 AM 19.4 °F - 14.0 °F 80% 29.99 in 10.0 mi Calm Calm - N/A   Clear
4:55 AM 17.6 °F - 14.0 °F 86% 29.99 in 10.0 mi Calm Calm - N/A   Clear
5:15 AM 19.4 °F - 15.8 °F 86% 29.99 in 10.0 mi Calm Calm - N/A   Clear
5:35 AM 17.6 °F - 14.0 °F 86% 29.99 in 10.0 mi Calm Calm - N/A   Clear
5:55 AM 17.6 °F - 14.0 °F 86% 29.98 in 10.0 mi Calm Calm - N/A   Clear
6:15 AM 17.6 °F - 14.0 °F 86% 29.98 in 10.0 mi Calm Calm - N/A   Clear
6:35 AM 19.4 °F - 15.8 °F 86% 29.97 in 10.0 mi Calm Calm - N/A   Clear
6:55 AM 19.4 °F 14.3 °F 15.8 °F 86% 29.97 in 10.0 mi SSW 3.5 mph - N/A   Clear
7:15 AM 17.6 °F - 14.0 °F 86% 29.97 in 10.0 mi Calm Calm - N/A   Clear
7:35 AM 19.4 °F 8.6 °F 14.0 °F 80% 29.97 in 10.0 mi SSW 9.2 mph - N/A   Clear
7:55 AM 19.4 °F 8.6 °F 15.8 °F 86% 29.97 in 10.0 mi SSW 9.2 mph - N/A   Clear
8:15 AM 21.2 °F - 17.6 °F 86% 29.97 in 10.0 mi Calm Calm - N/A   Clear
8:35 AM 21.2 °F 10.9 °F 17.6 °F 86% 29.98 in 10.0 mi SW 9.2 mph - N/A   Clear
8:55 AM 23.0 °F 12.4 °F 17.6 °F 80% 29.97 in 10.0 mi WSW 10.4 mph - N/A   Clear
9:15 AM 24.8 °F - 19.4 °F 80% 29.95 in 10.0 mi Calm Calm - N/A   Clear
9:35 AM 26.6 °F 16.2 °F 19.4 °F 74% 29.95 in 10.0 mi WSW 11.5 mph - N/A   Clear
9:55 AM 26.6 °F 16.8 °F 19.4 °F 74% 29.95 in 10.0 mi West 10.4 mph - N/A   Clear
10:15 AM 28.4 °F 16.6 °F 19.4 °F 69% 29.95 in 10.0 mi West 16.1 mph - N/A   Clear
10:35 AM 28.4 °F 18.0 °F 19.4 °F 69% 29.94 in 10.0 mi West 12.7 mph - N/A   Clear
10:55 AM 30.2 °F 20.2 °F 19.4 °F 64% 29.93 in 10.0 mi West 12.7 mph - N/A   Clear
11:15 AM 30.2 °F 21.9 °F 21.2 °F 69% 29.94 in 10.0 mi West 9.2 mph - N/A   Clear
11:35 AM 32.0 °F 23.6 °F 21.2 °F 64% 29.93 in 10.0 mi West 10.4 mph - N/A   Clear
11:55 AM 33.8 °F 25.8 °F 23.0 °F 65% 29.93 in 10.0 mi West 10.4 mph - N/A   Clear
12:15 PM 33.8 °F 26.4 °F 24.8 °F 70% 29.93 in 10.0 mi West 9.2 mph - N/A   Clear
12:35 PM 33.8 °F 25.8 °F 24.8 °F 70% 29.93 in 10.0 mi West 10.4 mph - N/A   Clear
12:55 PM 33.8 °F 25.8 °F 24.8 °F 70% 29.93 in 10.0 mi West 10.4 mph - N/A   Clear
1:15 PM 35.6 °F 28.6 °F 24.8 °F 65% 29.92 in 10.0 mi West 9.2 mph - N/A   Clear
1:35 PM 35.6 °F 28.6 °F 24.8 °F 65% 29.91 in 10.0 mi West 9.2 mph - N/A   Clear
1:55 PM 37.4 °F 31.4 °F 24.8 °F 60% 29.91 in 10.0 mi WSW 8.1 mph - N/A   Clear
2:15 PM 37.4 °F 30.3 °F 24.8 °F 60% 29.90 in 10.0 mi WSW 10.4 mph - N/A   Clear
2:35 PM 37.4 °F 30.3 °F 26.6 °F 65% 29.89 in 10.0 mi West 10.4 mph - N/A   Clear
2:55 PM 37.4 °F 30.3 °F 26.6 °F 65% 29.88 in 10.0 mi West 10.4 mph - N/A   Clear
3:15 PM 37.4 °F 29.3 °F 26.6 °F 65% 29.88 in 10.0 mi West 12.7 mph - N/A   Clear
3:35 PM 37.4 °F 28.9 °F 26.6 °F 65% 29.88 in 10.0 mi West 13.8 mph 18.4 mph N/A   Clear
3:55 PM 37.4 °F 28.5 °F 26.6 °F 65% 29.87 in 10.0 mi West 15.0 mph - N/A   Clear
4:15 PM 37.4 °F 28.9 °F 26.6 °F 65% 29.88 in 10.0 mi West 13.8 mph - N/A   Clear
4:35 PM 37.4 °F 30.3 °F 26.6 °F 65% 29.88 in 10.0 mi West 10.4 mph - N/A   Clear
4:55 PM 35.6 °F 26.6 °F 26.6 °F 70% 29.88 in 10.0 mi West 13.8 mph - N/A   Clear
5:15 PM 35.6 °F 28.0 °F 26.6 °F 70% 29.88 in 10.0 mi WNW 10.4 mph 17.3 mph N/A   Clear
5:35 PM 33.8 °F 24.8 °F 26.6 °F 75% 29.88 in 10.0 mi WNW 12.7 mph 17.3 mph N/A   Clear
5:55 PM 33.8 °F 24.3 °F 26.6 °F 75% 29.89 in 10.0 mi WNW 13.8 mph - N/A   Clear
6:15 PM 32.0 °F 22.5 °F 26.6 °F 80% 29.89 in 10.0 mi WNW 12.7 mph - N/A   Clear
6:35 PM 32.0 °F 22.5 °F 26.6 °F 80% 29.89 in 10.0 mi NW 12.7 mph - N/A   Clear
6:55 PM 30.2 °F 20.2 °F 26.6 °F 86% 29.89 in 10.0 mi WNW 12.7 mph - N/A   Clear
7:15 PM 30.2 °F 20.2 °F 26.6 °F 86% 29.89 in 10.0 mi NW 12.7 mph - N/A   Clear
7:35 PM 30.2 °F 19.3 °F 24.8 °F 80% 29.88 in 10.0 mi NW 15.0 mph - N/A   Clear
8:15 PM 30.2 °F 20.8 °F 24.8 °F 80% 29.88 in 10.0 mi NW 11.5 mph - N/A   Clear
8:35 PM 28.4 °F 19.1 °F 24.8 °F 86% 29.87 in 10.0 mi NW 10.4 mph - N/A   Clear
8:55 PM 28.4 °F 19.7 °F 23.0 °F 80% 29.87 in 10.0 mi WNW 9.2 mph - N/A   Clear
9:15 PM 28.4 °F 20.4 °F 23.0 °F 80% 29.87 in 10.0 mi WNW 8.1 mph - N/A   Clear
9:35 PM 28.4 °F 19.7 °F 23.0 °F 80% 29.86 in 10.0 mi NW 9.2 mph - N/A   Clear
9:55 PM 28.4 °F 21.2 °F 23.0 °F 80% 29.86 in 10.0 mi NW 6.9 mph - N/A   Clear
10:15 PM 26.6 °F 20.0 °F 23.0 °F 86% 29.86 in 10.0 mi WNW 5.8 mph - N/A   Clear
10:35 PM 26.6 °F 18.2 °F 23.0 °F 86% 29.86 in 10.0 mi WNW 8.1 mph - N/A   Clear
10:55 PM 28.4 °F 20.4 °F 23.0 °F 80% 29.86 in 10.0 mi WNW 8.1 mph - N/A   Clear
11:15 PM 26.6 °F 19.1 °F 23.0 °F 86% 29.86 in 10.0 mi NW 6.9 mph - N/A   Clear
11:35 PM 26.6 °F 18.2 °F 23.0 °F 86% 29.85 in 10.0 mi NW 8.1 mph - N/A   Clear
11:55 PM 26.6 °F 18.2 °F 21.2 °F 80% 29.85 in 10.0 mi NW 8.1 mph - N/A   Clear